Other Public Products
Issued by NWS Grand Forks, ND

Home | Current Version | Previous Version | Graphics & Text | Print | Product List | Glossary On
Versions: 1 2 3 4 5 6 7 8 9 10 11 12 13 14 15 16 17 18 19 20 21 22 23 24 25 26 27 28 29 30 31 32 33 34 35 36 37 38 39 40 41 42 43 44 45 46 47 48 49 50
000
FPUS83 KFGF 231510
OPUFGF
PRAIRIE TO PINES WEATHER ROUNDUP
NATIONAL WEATHER SERVICE EASTERN NORTH DAKOTA/GRAND FORKS ND
1000 AM CDT SAT JUL 23 2016

 **SATELLITE DATA USED TO AUGMENT SKY COVER AT AUTOMATED STATIONS**
 *****  WEATHER ACROSS EASTERN NORTH DAKOTA  *****

CITY           SKY/WX    TMP DP  RH WIND       PRES   REMARKS
GRAND FORKS    CLOUDY    73  65  75 NE8       29.80F
GRAND FORKS AF CLOUDY    71  65  80 NE5       29.81F
GRAND CITY NWS   N/A     72 N/A N/A E9          N/A
BUXTON           N/A     76  69  78 E9          N/A
DEVILS LAKE    RAIN      66  64  93 NW15      29.85F
FARGO          CLOUDY    79  67  66 SE12      29.76F
WAHPETON ARPT  CLOUDY    75  68  78 SE16G22   29.75F
$$

 *****  WEATHER ACROSS CENTRAL AND WESTERN NORTH DAKOTA  *****

CITY           SKY/WX    TMP DP  RH WIND       PRES   REMARKS
JAMESTOWN      CLOUDY    74  69  85 NE5       29.75F
BISMARCK       PTSUNNY   69  64  84 NE17G23   29.78F
MINOT          CLOUDY    69  64  84 S6        29.77F THUNDER
MINOT AFB      CLOUDY    66  63  89 S5        29.76S
GARRISON         N/A     69  65  86 E12       29.77F
WILLISTON      SUNNY     75  60  59 W14       29.84R
DICKINSON      CLOUDY    66  62  87 N7        29.85R
HETTINGER      MOSUNNY   75  62  64 NW23      29.84R
$$

 *****  OTHER OBSERVATIONS NORTHEAST NORTH DAKOTA  *****

CITY           SKY/WX    TMP DP  RH WIND       PRES   REMARKS
WALHALLA       NOT AVBL
LANGDON        LGT RAIN  66  66 100 SW7       29.89F
CAVALIER       LGT RAIN  64  64 100 MISG      29.88F
GRAFTON        FAIR      68  68 100 NW13      29.87R
CANDO          NOT AVBL
FORT TOTTEN      N/A     67  65  93 NW7       29.95S
ROLLA            N/A     64  64 100 S7        29.82F
RUGBY          NOT AVBL
 ***** THE ABOVE OBSERVATIONS ARE NON NWS ARE NOT QUALITY
        CONTROLLED AND MAY MIS-REPORT RAIN FOR SNOW...
$$

 *****  OTHER OBSERVATIONS SOUTHEAST NORTH DAKOTA *****

CITY           SKY/WX    TMP DP  RH WIND       PRES   REMARKS
COOPERSTOWN    NOT AVBL
VALLEY CITY    CLOUDY    75  73  94 SE12      29.78F
OAKES            N/A    N/A N/A N/A MISG        N/A
GWINNER        FAIR      77  73  88 E13       29.72F
SHEYENNE NWR     N/A     76  71  83 SE7       29.95S
BUFFALO          N/A     75  64  70 E10         N/A
WYNDMERE       NOT AVBL
 ***** THE ABOVE OBSERVATIONS ARE NON NWS ARE NOT QUALITY
       CONTROLLED AND MAY MIS-REPORT RAIN FOR SNOW...
$$

  *****  WEATHER ACROSS NORTHERN MINNESOTA  *****

CITY           SKY/WX    TMP DP  RH WIND       PRES   REMARKS
FLAG ISLAND    CLOUDY    72  61  68 SE9       29.92R
WARROAD        LGT RAIN  70  63  78 E6        29.90F
ROSEAU         LGT RAIN  68  63  83 E6        29.89F
HALLOCK        CLOUDY    66  64  94 E3        29.85F
THF RVR FALLS  CLOUDY    71  64  78 E8        29.85F
HALSTAD        NOT AVBL
FOSSTON        CLOUDY    72  63  73 SE8       29.85F
BAUDETTE       CLOUDY    67  61  81 CALM      29.93R
WASKISH        CLOUDY    70  63  78 E6        29.90F
CROOKSTON      CLOUDY    77  63  61 E8        29.81F
$$
  *****  WEATHER ACROSS CENTRAL AND WEST MINNESOTA  *****

CITY           SKY/WX    TMP DP  RH WIND       PRES   REMARKS
BEMIDJI        CLOUDY    73  61  64 E10       29.88F
PARK RAPIDS    CLOUDY    75  61  61 E10       29.85F
WADENA         CLOUDY    73  63  68 SE12      29.83F
DETROIT LAKES  CLOUDY    73  61  64 SE9G17    29.83F
MOORHEAD       CLOUDY    79  68  69 SE6       29.78S
FERGUS FALLS   CLOUDY    77  70  78 SE20G26   29.79S
ELBOW LAKE     FAIR      71  68  90 E13G20    29.81F
MORRIS MN      LGT RAIN  70  68  94 SE13      29.79F
STAPLES        CLOUDY    73  63  68 SE8       29.85F
WHEATON        NOT AVBL
$$
  *****  WEATHER ELSEWHERE ACROSS MINNESOTA  *****

CITY           SKY/WX    TMP DP  RH WIND       PRES   REMARKS
DULUTH         CLOUDY    76  60  57 E14       29.96F
INTRNTL FALLS  CLOUDY    70  60  70 SE6       29.93S
ELY            SUNNY     77  57  50 SE9       29.98F
CLOQUET        CLOUDY    77  57  50 E9        29.94F
BRAINERD       CLOUDY    76  64  66 SE8G17    29.85F
HIBBING        PTSUNNY   76  60  57 SE13      29.94F
ALEXANDRIA     LGT RAIN  72  67  84 S10       29.88R
SAINT CLOUD    CLOUDY    74  70  87 E6        29.84F
MINNEAPOLIS    CLOUDY    81  73  76 E13       29.86F
$$

  *****  WEATHER ACROSS SOUTH DAKOTA  *****

CITY           SKY/WX    TMP DP  RH WIND       PRES   REMARKS
SIOUX FALLS    CLOUDY    75  71  87 SE12      29.82F
BROOKINGS      CLOUDY    70  69  97 E12       29.77F
WATERTOWN      CLOUDY    72  68  87 SE12      29.75F
HURON          CLOUDY    75  71  87 S9        29.74F
SISSETON         N/A     71  68  90 S10       29.74F
ABERDEEN       CLOUDY    74  69  85 S14       29.73R
MITCHELL       MOSUNNY   77  72  84 S17       29.82R
PIERRE         SUNNY     83  73  72 SE9       29.74F
MOBRIDGE       CLOUDY    79  74  84 S13       29.72R
RAPID CITY     SUNNY     83  56  39 N26G35    29.86S
$$

  *****  SOME WEATHER IN NEARBY STATES *****

CITY           SKY/WX    TMP DP  RH WIND       PRES   REMARKS
GLASGOW MT     SUNNY     71  46  40 W16G25    29.87S
GREAT FALLS MT MOSUNNY   71  39  31 W17G24    30.07R
CHEYENNE WY    SUNNY     81  41  24 NW16      30.15S
SCOTTSBLUFF NE SUNNY     81  56  42 W8        29.98R
OMAHA NE       CLOUDY    82  72  71 S10       29.83F
DES MOINES IA  PTSUNNY   86  77  74 S12       29.87F HX  97
DAVENPORT IA   PTSUNNY   84  78  82 SE7       29.97F HX  95
CHICAGO IL     PTSUNNY   86  75  69 VRB3      29.98S HX  95
EAU CLAIRE WI  PTSUNNY   83  67  58 SE13      29.94S
LA CROSSE WI   TSTM      73  71  93 VRB5      29.99R VSB 1
$$

  *****  SOME NATIONAL WEATHER *****

CITY           SKY/WX    TMP DP  RH WIND       PRES   REMARKS
LA GUARDIA NY  MOSUNNY   90  61  37 W7        29.84F HX  90
RALEIGH NC     MOSUNNY   87  74  64 CALM      30.01R HX  95
ATLANTA GA     CLOUDY    86  74  67 SW6       30.07R HX  94
NEW ORLEANS LA PTSUNNY   89  76  65 W3        30.01S HX 100
OKLAHOMA CITY  MOSUNNY   88  67  49 S12       29.99F HX  91
ALBUQUERQUE NM MOSUNNY   78  50  37 SE3       30.20S
SALT LAKE CITY MOSUNNY   78  32  18 VRB3      30.15R
LOS ANGELES CA PTSUNNY   73  62  68 VRB3      29.82S
BOISE ID       SUNNY     63  43  48 NW6       30.19R
SEATTLE WA     CLOUDY    60  56  86 CALM      30.28R
$$

*** WEATHER ACROSS MANITOBA...SASKATCHEWAN AND ONTARIO ***
                ***ONTARIO***

CITY           SKY/WX    TMP DP  RH WIND       PRES   REMARKS
GERALDTON      MOSUNNY   70  57  64 E5        30.05R
THUNDER BAY    PTSUNNY   73  61  64 E9        30.01R
SIOUX LOOKOUT  CLOUDY    73  63  68 S6        29.96F
TORONTO        MOSUNNY   86  55  35 NW14G24   29.93R
BIG TROUT LK   SUNNY     61  43  51 SE9       30.00F
PICKLE LAKE    PTSUNNY   72  59  64 S9        29.97F
DRYDEN         SUNNY     73  59  60 SE9       29.95S
KENORA         CLOUDY    68  57  68 SE7       29.94R
$$
                *** MANITOBA***

CITY           SKY/WX    TMP DP  RH WIND       PRES   REMARKS
BRANDON        MOSUNNY   70  66  88 S6        29.79F
DAUPHIN        LGT RAIN  66  63  88 E5        29.77F
ISLAND LAKE    NOT AVBL
PILOT MOUND      N/A     64  63  94 S14G24      N/A
THE PAS        CLOUDY    66  63  88 S7        29.78S
THOMPSON       PTSUNNY   70  54  56 S10G20    29.78S
WINNIPEG       LGT RAIN  64  63  94 S7        29.88F
LYNN LAKE      CLOUDY    64  59  82 MISG      29.70F
CHURCHILL      CLOUDY    57  46  67 S13       29.79F
GILLAM         PTSUNNY   68  48  49 S9        29.83F
$$
                ***SASKATCHEWAN***

CITY           SKY/WX    TMP DP  RH WIND       PRES   REMARKS
ESTEVAN        PTSUNNY   70  64  83 S13G20    29.78S
KINDERSLEY     PTSUNNY   61  55  82 NW15G22   29.82R
LLOYDMINSTER   PTSUNNY   63  54  72 NW10      29.84R
PRINCE ALBERT  LGT RAIN  63  61  94 VRB2      29.73F
REGINA         CLOUDY    64  61  88 W17G26    29.73R
YORKTON        CLOUDY    66  61  82 SE10G20   29.69F  C1F1C2F2C3F3C4F4C5F5C6F6C7F7C8F8C9F9CaFaCbFbCcFcCdFdCe!


USA.gov is the U.S. government's official web portal to all federal, state and local government web resources and services.